Regional Weather Roundup
Issued by NWS Sterling, VA

Home | Current Version | Previous Version | Text Only | Print | Product List | Glossary Off
Versions: 1 2 3 4 5 6 7 8 9 10 11 12 13 14 15 16 17 18 19 20 21 22 23 24 25 26 27 28 29 30 31 32 33 34 35 36 37 38 39 40 41 42 43 44 45 46 47 48 49 50

000
ASUS41 KLWX 281010
RWRLWX

REGIONAL WEATHER ROUNDUP
NATIONAL WEATHER SERVICE BALTIMORE MD/WASHINGTON DC
600 AM EDT FRI AUG 28 2015

Note: "FAIR" indicates few or no clouds below 12,000 feet
with no significant weather and/or obstructions to visibility.
 TC=TEMPERATURE CELSIUS

 * =Non NWS site. Station does not report precipitation (e.g. rain,
    snow, etc.), thunder, or fog.

DCZ001-MDZ009-015-VAZ040>042-051-053>054-281100-
WASHINGTON METRO

CITY           SKY/WX    TMP DP  RH WIND       PRES   REMARKS
WASHINGTON NAT PTCLDY    66  59  78 CALM      30.16S
DULLES         PTCLDY    58  56  93 CALM      30.16S
ANDREWS AFB    PTCLDY    62  57  82 N2        30.15S
FT BELVOIR     PTCLDY    59  58  95 CALM      30.16S
QUANTICO       PTCLDY    62  58  86 NW9       30.17
COLLEGE PARK*  CLEAR     59  59 100 CALM      30.16S
LEESBURG*      CLEAR     59  59 100 CALM      30.18S
MANASSAS*      CLEAR     57  57 100 CALM      30.17R
GAITHERSBURG*  PTCLDY    55  54  94 CALM      30.21R

$$

MDZ006>007-011-014-281100-
BALTIMORE METRO

CITY           SKY/WX    TMP DP  RH WIND       PRES   REMARKS
BWI AIRPORT    PTCLDY    57  55  93 CALM      30.16R
MD SCIENCE CTR   N/A     65  56  72 MISG      30.16
MARTIN STATE   PTCLDY    61  61 100 CALM      30.17R
ANNAPOLIS      CLEAR     68  61  78 N6        30.15R
FORT MEADE*    PTCLDY    54  54 100 CALM      30.19R

$$

MDZ012-015-019>023-281100-
MARYLAND EASTERN SHORE

CITY           SKY/WX    TMP DP  RH WIND       PRES   REMARKS
OCEAN CITY     CLEAR     58  56  93 NW3       30.14R
SALISBURY      CLEAR     59  57  93 CALM      30.14R
BAY BRIDGE AP*   N/A     64  59  82 CALM      30.16R
CAMBRIDGE*     CLEAR     57  54  88 CALM      30.15R
EASTON*        CLEAR     59  59 100 CALM      30.18

$$

MDZ017>025-281100-
SOUTHERN MARYLAND

CITY           SKY/WX    TMP DP  RH WIND       PRES   REMARKS
PATUXENT RIVER PTCLDY    58  57  97 W3        30.14R
ST INIGOES     CLEAR     58  57  97 CALM      30.14R
LEONARDTOWN*   CLEAR     59  55  88 CALM      30.17R

$$

MDZ003>005-281100-
NORTH CENTRAL MARYLAND

CITY           SKY/WX    TMP DP  RH WIND       PRES   REMARKS
FREDERICK*     CLOUDY    55  55 100 CALM      30.20S
HAGERSTOWN APT MOCLDY    58  53  84 E5        30.18R
WESTMINSTER*   CLEAR     57  54  88 CALM      30.18R

$$

MDZ501>502-281100-
WESTERN MARYLAND

CITY           SKY/WX    TMP DP  RH WIND       PRES   REMARKS
OAKLAND*       CLOUDY    54  50  87 SE6       30.22S
CUMBERLAND*    MOCLDY    55  54  94 CALM      30.23R

$$

VAZ025>031-281100-
SHENANDOAH VALLEY

CITY           SKY/WX    TMP DP  RH WIND       PRES   REMARKS
WINCHESTER*    MOCLDY    55  54  94 CALM      30.18R
FRONT ROYAL*   PTSUNNY   55  54  94 CALM      30.17R
LURAY*         FAIR      55  55 100 CALM      30.18R
NEW MARKET*    CLOUDY    56  55  96 CALM      30.18R
STAUNTON*      PTCLDY    57  54  89 CALM      30.21S
WAYNESBORO*    PTSUNNY   58  55  91 CALM      30.20S

$$

WVZ021-048>050-054>055-281100-
EASTERN WEST VIRGINIA PANHANDLE

CITY           SKY/WX    TMP DP  RH WIND       PRES   REMARKS
MARTINSBURG    MOCLDY    55  53  93 CALM      30.18R FOG
PETERSBURG*    MOCLDY    55  54  98 CALM      30.20R FOG

$$

VAZ036>039-050-281100-
CENTRAL FOOTHILLS

CITY           SKY/WX    TMP DP  RH WIND       PRES   REMARKS
CHARLOTTESVILL CLOUDY    62  59  90 W3        30.17R
CULPEPER*      CLOUDY    59  58  94 CALM      30.17S
ORANGE*        PTCLDY    59  57  94 CALM      30.18R
GORDONSVILLE*  PTSUNNY   59  58  97 CALM      30.16R
WARRENTON*     FOG       55  55 100 CALM      30.16S VSB 1

$$

VAZ055>057-281100-
NORTH AND CENTRAL PIEDMONT

CITY           SKY/WX    TMP DP  RH WIND       PRES   REMARKS
FREDERICKSBRG* CLEAR     61  61 100 CALM      30.15S
STAFFORD*      CLEAR     55  54  96 CALM      30.20R FOG

$$

NCZ024-NYZ072-PAZ021-071-VAZ022-071-281100-
OTHER REGIONAL OBSERVATIONS

CITY           SKY/WX    TMP DP  RH WIND       PRES   REMARKS
NEW YORK CITY  CLEAR     64  53  67 CALM      30.17R
PHILADELPHIA   PTCLDY    64  54  69 N5        30.16S
PITTSBURGH     PTCLDY    55  51  86 CALM      30.18R
ROANOKE        CLOUDY    63  59  87 CALM      30.20R
RICHMOND       PTCLDY    62  58  86 N5        30.15R
RALEIGH        PTCLDY    62  60  93 CALM      30.14S

$$

ANZ530>537-281100-
MARINE OBSERVATIONS

STATION/POSITION TIME  TEMP    WIND        PRES
                       AIR SEA DIR/SP/G
                 (UTC) (F)     (DEG/KT/KT) (MB)
THOMAS PT LIGHT  NOT AVBL
BALT KEY BRIDGE  0900   69     340/  5/  6 1020.8R
COVE POINT       0900   71      90/  7/ 10 1021.1F
LEWISETTA        0900   74 79   80/  7/  8 1019.7F
SOLOMONS ISLAND  0900      81                N/A
PINEY POINT      0900           50/  2/  3   N/A

$$



USA.gov is the U.S. government's official web portal to all federal, state and local government web resources and services.